TimeEDT,TemperatureF,Dew PointF,Humidity,Sea Level PressureIn,VisibilityMPH,Wind Direction,Wind SpeedMPH,Gust SpeedMPH,PrecipitationIn,Events,Conditions,WindDirDegrees,DateUTC
12:53 AM,63.0,48.0,58,30.05,10.0,Calm,Calm,-,N/A,,Mostly Cloudy,0,2011-10-11 04:53:00
1:53 AM,63.0,48.0,58,30.04,10.0,Calm,Calm,-,0.00,Rain,Light Rain,0,2011-10-11 05:53:00
2:53 AM,62.1,51.1,67,30.03,10.0,Calm,Calm,-,0.00,Rain,Light Rain,0,2011-10-11 06:53:00
3:53 AM,61.0,51.1,70,30.01,7.0,Calm,Calm,-,0.01,Rain,Light Rain,0,2011-10-11 07:53:00
4:53 AM,59.0,55.0,87,30.02,10.0,Calm,Calm,-,0.01,Rain,Light Rain,0,2011-10-11 08:53:00
5:53 AM,57.9,55.0,90,30.02,10.0,Calm,Calm,-,0.01,Rain,Light Rain,0,2011-10-11 09:53:00
6:53 AM,57.9,55.9,93,30.03,6.0,Calm,Calm,-,0.03,Rain,Light Rain,0,2011-10-11 10:53:00
7:53 AM,57.9,55.9,93,30.04,5.0,Calm,Calm,-,0.04,Rain,Light Rain,0,2011-10-11 11:53:00
8:53 AM,59.0,57.0,93,30.05,5.0,Calm,Calm,-,0.06,Rain,Light Rain,0,2011-10-11 12:53:00
9:53 AM,60.1,57.0,90,30.04,10.0,NE,3.5,-,0.02,Rain,Light Rain,40,2011-10-11 13:53:00
10:53 AM,63.0,55.9,78,30.03,10.0,Calm,Calm,-,0.01,Rain,Light Rain,0,2011-10-11 14:53:00
11:53 AM,66.0,54.0,65,30.02,10.0,ENE,3.5,-,0.00,,Overcast,60,2011-10-11 15:53:00
12:53 PM,69.1,52.0,54,29.99,10.0,ENE,6.9,-,N/A,,Mostly Cloudy,70,2011-10-11 16:53:00
1:53 PM,69.1,52.0,54,29.97,10.0,SSE,8.1,-,0.00,Rain,Light Rain,150,2011-10-11 17:53:00
2:53 PM,72.0,51.1,48,29.95,10.0,Variable,6.9,-,0.00,,Mostly Cloudy,0,2011-10-11 18:53:00
3:53 PM,70.0,51.1,51,29.94,10.0,East,9.2,-,N/A,,Mostly Cloudy,80,2011-10-11 19:53:00
4:53 PM,66.9,51.1,57,29.94,10.0,ENE,10.4,-,N/A,,Overcast,70,2011-10-11 20:53:00
5:53 PM,64.0,50.0,60,29.95,10.0,NE,6.9,-,N/A,,Overcast,50,2011-10-11 21:53:00
6:53 PM,61.0,53.1,75,29.95,10.0,NE,4.6,-,0.00,Rain,Light Rain,40,2011-10-11 22:53:00
7:53 PM,57.9,54.0,87,29.96,10.0,NE,3.5,-,0.00,Rain,Light Rain,40,2011-10-11 23:53:00
8:53 PM,57.9,54.0,87,29.95,7.0,Calm,Calm,-,0.04,Rain,Light Rain,0,2011-10-12 00:53:00
9:53 PM,57.0,54.0,89,29.95,9.0,Calm,Calm,-,0.04,Rain,Light Rain,0,2011-10-12 01:53:00
10:53 PM,55.9,55.0,97,29.95,6.0,Calm,Calm,-,0.07,Rain,Rain,0,2011-10-12 02:53:00
11:53 PM,55.9,55.0,97,29.93,6.0,Calm,Calm,-,0.07,Rain,Light Rain,0,2011-10-12 03:53:00